Flag for Canada Weather past 2 weeks in New Westminster, British Columbia, Canada

Now
59 °F

Cool.


Feels Like: 59 °F
Forecast: 62 / 81 °F
Wind: 2 mph from Southeast

Location: P. Meadows Coastal Station

Current Time: Jul 31, 2014 at 4:57:14 AM

Latest Report: Jul 31, 2014 at 4:00 AM


Visibility: N/A

Pressure: 30.10 "Hg

Humidity: 93%

Dew point: 57 °F

Location of New WestminsterLocation

Historic Weather in New Westminster — Graph

°F

New Westminster temperature yesterday

Maximum temperature yesterday: 83 °F (at 5:00 PM)
Minimum temperature yesterday: 57 °F (at 6:00 AM)
Average temperature yesterday: 70 °F

Past Weeks' High & Low Weather Summary

 TemperatureHumidityPressure
High87 °F (Jul 28, 5:00 PM)97% (Jul 27, 6:00 AM)30.21 "Hg (Jul 27, 6:00 AM)
Low52 °F (Jul 22, 5:00 AM)31% (Jul 28, 5:00 PM)29.89 "Hg (Jul 16, 9:00 PM)
Average66 °F72%30.05 "Hg
* Reported Jul 16 3:00 AM — Jul 31 3:00 AM, New Westminster, Weather by CustomWeather, © 2014

Note: Actual official high and low records may vary slightly from our data, if they occured in-between our weather recording intervals... More about our weather records

Advertising

New Westminster weather history for previous 24 hours

 ConditionsComfort  
Time TempWeatherWind HumidityBarometerVisibility
3:00 AM
Jul 31
60 °FCool.1 mph92%30.10 "HgN/A
2:00 AM62 °FCool.1 mph90%30.10 "HgN/A
1:00 AM63 °FMild.No wind86%30.09 "HgN/A
12:00 AM65 °FMild.1 mph86%30.09 "HgN/A
11:00 PM
Jul 30
68 °FMild.1 mph75%30.08 "HgN/A
10:00 PM69 °FMild.1 mph69%30.07 "HgN/A
9:00 PM73 °FMild.2 mph62%30.06 "HgN/A
8:00 PM78 °FWarm.3 mph53%30.06 "HgN/A
7:00 PM80 °FWarm.5 mph49%30.06 "HgN/A
6:00 PM82 °FWarm.5 mph49%30.07 "HgN/A
5:00 PM83 °FWarm.5 mph41%30.08 "HgN/A
4:00 PM83 °FWarm.3 mph41%30.10 "HgN/A
3:00 PM81 °FWarm.6 mph43%30.11 "HgN/A
2:00 PM80 °FWarm.5 mph44%30.12 "HgN/A
1:00 PM78 °FWarm.3 mph51%30.13 "HgN/A
12:00 PM76 °FMild.3 mph55%30.13 "HgN/A
11:00 AM72 °FMild.1 mph63%30.14 "HgN/A
10:00 AM67 °FMild.2 mph71%30.14 "HgN/A
9:00 AM67 °FMild.2 mph71%30.14 "HgN/A
8:00 AM63 °FMild.2 mph76%30.14 "HgN/A
7:00 AM61 °FCool.1 mph89%30.14 "HgN/A
6:00 AM57 °FCool.No wind94%30.12 "HgN/A
5:00 AM58 °FCool.1 mph96%30.12 "HgN/A
4:00 AM58 °FCool.1 mph95%30.10 "HgN/A
Weather by CustomWeather, © 2014

See weather overviewHow to use our weather pages